Regional Weather Roundup
Issued by NWS

Home | Current Version | Previous Version | Graphics & Text | Print | Product List | Glossary On
Versions: 1 2 3 4 5 6 7 8 9 10 11 12 13 14 15 16 17 18 19 20 21 22 23 24 25 26 27 28 29 30 31 32 33 34 35 36 37 38 39 40 41 42 43 44 45 46 47 48 49 50
000
ASUS43 KDTX 130010
RWRMI
MICHIGAN HOURLY REGIONAL WEATHER ROUNDUP
NATIONAL WEATHER SERVICE DETROIT/PONTIAC MI
700 PM EST TUE DEC 12 2017

NOTE: "FAIR" INDICATES FEW OR NO CLOUDS BELOW 12,000 FEET WITH NO
SIGNIFICANT WEATHER AND/OR OBSTRUCTION TO VISIBILITY.

MIZ047>049-052>055-059>063-066>070-074>076-081>083-130100-
SOUTHEAST LOWER MICHIGAN

CITY           SKY/WX    TMP DP  RH WIND       PRES   REMARKS
ADRIAN         PTCLDY    16   1  51 NW8       29.92R WCI   5
6HR MIN TEMP:  16; 6HR MAX TEMP:  21; 6HR PCP: TRACE;

ALMA           CLOUDY    17  10  74 W7        29.91S WCI   8
6HR MIN TEMP:  17; 6HR MAX TEMP:  20;

ANN ARBOR      MOCLDY    16   7  67 W8        29.89R WCI   5
BAD AXE        CLOUDY    13   1  59 NW16G23   29.84S WCI  -3
6HR MIN TEMP:  13; 6HR MAX TEMP:  15;

CARO           PTCLDY    14   3  61 NW15      29.87R WCI  -1
DETROIT CITY   PTCLDY    16   3  56 NW9       29.88R WCI   4
6HR MIN TEMP:  16; 6HR MAX TEMP:  20; 6HR PCP: TRACE;

DETROIT        MOCLDY    18   5  57 NW10      29.91R WCI   6
6HR MIN TEMP:  18; 6HR MAX TEMP:  22;

FLINT          PTCLDY    14   3  61 NW12      29.89R WCI   0
6HR MIN TEMP:  12; 6HR MAX TEMP:  18;

GROSSE ILE     CLOUDY    18   5  57 NW13      29.89R WCI   4
6HR MIN TEMP:  17; 6HR MAX TEMP:  22;

HILLSDALE      CLOUDY    16   3  57 NW10      29.89R WCI   3
HOWELL         CLOUDY    14   8  76 NW5       29.88R WCI   6
6HR MIN TEMP:  13; 6HR MAX TEMP:  19;


CITY           SKY/WX    TMP DP  RH WIND       PRES   REMARKS
JACKSON        PTCLDY    16   2  54 W9        29.90R WCI   4
6HR MIN TEMP:  15; 6HR MAX TEMP:  20; 6HR PCP: TRACE;

LAMBERTVILLE   MOCLDY    16   5  63 NW3       29.92R
6HR MIN TEMP:  16; 6HR MAX TEMP:  21;

LANSING        FLURRIES  16  11  80 NW12      29.91S WCI   3
6HR MIN TEMP:  15; 6HR MAX TEMP:  20; 6HR PCP: TRACE;

LAPEER         MOCLDY    14   1  58 NW14      29.86S WCI  -1
6HR MIN TEMP:  14; 6HR MAX TEMP:  18;

MASON          CLOUDY    18   8  67 NW9G17    29.90S WCI   6
6HR MIN TEMP:  17; 6HR MAX TEMP:  21;

MONROE         CLOUDY    17   7  64 NW10      29.90S WCI   5
6HR MIN TEMP:  16; 6HR MAX TEMP:  22;

MT. CLEMENS    PTCLDY    15   2  55 NW13      29.85R WCI   1
6HR MIN TEMP:  15; 6HR MAX TEMP:  19;

PONTIAC        PTCLDY    13   3  64 NW10      29.85R WCI   0
6HR MIN TEMP:  13; 6HR MAX TEMP:  17; 6HR PCP: TRACE;

PORT HOPE        N/A     16   7  67 NW20G36   29.81S WCI  -1
6HR MIN TEMP:  15; 6HR MAX TEMP:  17;

PORT HURON     CLEAR     12   0  57 NW7       29.84S WCI   2
TRI CITIES     CLOUDY    15   6  67 NW13      29.90S WCI   1
6HR MIN TEMP:  14; 6HR MAX TEMP:  18;

MIDLAND        CLOUDY    16   6  64 W8        29.90R WCI   5
6HR MIN TEMP:  16; 6HR MAX TEMP:  19;

TROY           CLEAR     17   3  55 NW15      29.89R WCI   2
SAGINAW HB     PTCLDY    14   5  67 NW10      29.89R WCI   1
$$
MIZ043>046-050>051-056>058-064>065-071>073-077>080-130100-
SOUTHWEST LOWER MICHIGAN

CITY           SKY/WX    TMP DP  RH WIND       PRES   REMARKS
BATTLE CREEK   CLOUDY    18   8  65 NW9       29.93R WCI   7
6HR MIN TEMP:  18; 6HR MAX TEMP:  22;

BENTON HARBOR  CLOUDY    23   9  55 W10G24    29.97F WCI  12
6HR MIN TEMP:  21; 6HR MAX TEMP:  24;

BIG RAPIDS     LGT SNOW  15  11  82 NW7       29.89S WCI   6
6HR MIN TEMP:  15; 6HR MAX TEMP:  17;

COLDWATER      CLOUDY    18  10  72 NW9       29.93R WCI   7
6HR MIN TEMP:  18; 6HR MAX TEMP:  22;

FREMONT        CLOUDY    17  13  85 NW8       29.94R WCI   6
6HR MIN TEMP:  17; 6HR MAX TEMP:  20;

HOLLAND        LGT SNOW  18  13  80 NE3       29.96S
6HR MIN TEMP:  18; 6HR MAX TEMP:  20; 6HR PCP:  0.04;

GRAND RAPIDS   FLURRIES  18  12  77 NW8       29.94R WCI   8
6HR MIN TEMP:  17; 6HR MAX TEMP:  22; 6HR PCP: TRACE;

IONIA          CLOUDY    18   6  60 W10       29.91S WCI   6
6HR MIN TEMP:  17; 6HR MAX TEMP:  21;

KALAMAZOO      LGT SNOW  18  13  80 NW12      29.95R WCI   5
6HR MIN TEMP:  18; 6HR MAX TEMP:  22; 6HR PCP: TRACE;

LUDINGTON      CLOUDY    19   7  59 N12       29.94S WCI   7
6HR MIN TEMP:  18; 6HR MAX TEMP:  19;

MARSHALL       CLOUDY    16   7  66 NW7       29.91S WCI   6
6HR MIN TEMP:  16; 6HR MAX TEMP:  21;

MOUNT PLEASANT CLOUDY    17   8  67 NW3       29.89R
6HR MIN TEMP:  17; 6HR MAX TEMP:  21;

MUSKEGON       LGT SNOW  20  11  68 N10       29.96S WCI   9
6HR MIN TEMP:  18; 6HR MAX TEMP:  20; 6HR PCP:  0.02;

SOUTH HAVEN    CLOUDY    24  10  56 NW12G18   29.96S WCI  13
$$
MIZ016>042-130100-
NORTHERN LOWER MICHIGAN

CITY           SKY/WX    TMP DP  RH WIND       PRES   REMARKS
ALPENA         MOCLDY    10   4  76 NW8       29.85S WCI  -2
6HR MIN TEMP:   9; 6HR MAX TEMP:  12; 6HR PCP: TRACE;

BEAVER ISLAND  CLOUDY    15   5  63 N13G18    29.92S WCI   1
6HR MIN TEMP:  14; 6HR MAX TEMP:  15;

BELLAIRE       CLOUDY    15   6  67 N7        29.91S WCI   5
6HR MIN TEMP:  14; 6HR MAX TEMP:  16;

CADILLAC       LGT SNOW  13   9  82 NW7       29.84S WCI   3
CHARLEVOIX     CLOUDY    16   7  66 N16G26    29.93S WCI   1
6HR MIN TEMP:  14; 6HR MAX TEMP:  17;

FRANKFORT      FLURRIES  20   9  62 NW9       29.92F WCI   9
GAYLORD        CLOUDY     9   1  70 VRB6      29.83S WCI  -1
6HR MIN TEMP:   8; 6HR MAX TEMP:  10; 6HR PCP: TRACE;

GRAYLING       PTCLDY    10   3  73 NW10G17   29.85S WCI  -3
6HR MIN TEMP:  10; 6HR MAX TEMP:  14;

HARBOR SPRINGS CLOUDY    12   5  72 N3        29.90S
HOUGHTON LAKE  PTCLDY    10   1  67 NW7       29.85S WCI  -1
6HR MIN TEMP:  10; 6HR MAX TEMP:  14; 6HR PCP: TRACE;

MANISTEE       FLURRIES  19   9  65 NW12G24   29.93S WCI   7
OSCODA         CLEAR      9  -3  58 NW13G20   29.85S WCI  -6
6HR MIN TEMP:   9; 6HR MAX TEMP:  14;

PELLSTON       CLOUDY    12   3  67 N9        29.91S WCI   0
6HR MIN TEMP:  11; 6HR MAX TEMP:  13;

ROGERS CITY    CLOUDY    13   4  68 NW18G28   29.87S WCI  -5
TRAVERSE CITY  LGT SNOW  18  13  80 N9G20     29.90S VSB 1   WCI   7
6HR MIN TEMP:  17; 6HR MAX TEMP:  19; 6HR PCP: TRACE;

$$
MIZ007>008-015-130100-
EASTERN UPPER MICHIGAN

CITY           SKY/WX    TMP DP  RH WIND       PRES   REMARKS
KINROSS        FLURRIES   2  -3  80 NE7       29.89R WCI -11
6HR MIN TEMP:   2; 6HR MAX TEMP:   9;

MACKINAC ISLAN CLOUDY    12   3  68 NW13G20   29.89S WCI  -3
6HR MIN TEMP:  11; 6HR MAX TEMP:  15;

NEWBERRY       CLOUDY     9   6  86 NW3       29.90S
6HR MIN TEMP:   8; 6HR MAX TEMP:  10;

S. S. MARIE    CLEAR      3  -6  66 N8        29.90S WCI -10
6HR MIN TEMP:   3; 6HR MAX TEMP:   8;

MUNISING         N/A     18  14  84 N13       29.91S WCI   5
6HR MIN TEMP:  17; 6HR MAX TEMP:  19; 6HR PCP:  0.02;

$$
MIZ004>006-011>014-085-130100-
CENTRAL UPPER MICHIGAN

CITY           SKY/WX    TMP DP  RH WIND       PRES   REMARKS
MANISTIQUE     CLOUDY    12   6  78 CALM      29.93R
6HR MIN TEMP:  12; 6HR MAX TEMP:  14;

ESCANABA       MOCLDY     6  -1  73 N3        29.96S
6HR MIN TEMP:   4; 6HR MAX TEMP:  17;

MENOMINEE      CLEAR      6   0  76 CALM      29.97F
6HR MIN TEMP:   6; 6HR MAX TEMP:  19; 6HR PCP: TRACE;

SAWYER-GWINN   CLOUDY    10   1  67 W6        29.89F WCI   1
$$
MIZ001>003-009>011-084-130100-
WESTERN UPPER MICHIGAN

CITY           SKY/WX    TMP DP  RH WIND       PRES   REMARKS
IRON MOUNTAIN  CLOUDY    12   2  64 NW6       29.89F WCI   3
6HR MIN TEMP:  12; 6HR MAX TEMP:  15; 6HR PCP: TRACE;

HOUGHTON       FLURRIES  11   4  73 CALM      29.88F
6HR MIN TEMP:  11; 6HR MAX TEMP:  12; 6HR PCP: TRACE;

COPPER HARBOR    N/A     15   8  73 VRB7      29.92F WCI   5
6HR MIN TEMP:  12; 6HR MAX TEMP:  16;

IRONWOOD       CLOUDY    10   3  73 SE3       29.88F
6HR MIN TEMP:   9; 6HR MAX TEMP:  11;

$$

ABBREVIATIONS USED IN REMARKS
   TC - TEMPERATURE IN CELSIUS
  WCI - WIND CHILL INDEX
   HX - HEAT INDEX
  VSB - VISIBILITY





USA.gov is the U.S. government's official web portal to all federal, state and local government web resources and services.